QPF
0.03 0.04 0.10 0.08 0.07 0.06 0.05 0.04 0.03 0.05 0.05 0.06 0.09 0.09 0.06 0.04 0.04 0.05 0.05 0.05 0.06 0.06 0.06 0.06 0.06 0.06 0.07 0.06 0.07 0.09 0.09 0.09 0.09 0.08 0.08 0.09 0.09 0.09 0.08 0.09 0.10 0.08 0.10
0.05 0.03 0.07 0.06 0.05 0.05 0.06 0.06 0.05 0.08 0.10 0.14 0.14 0.10 0.06 0.03 0.03 0.04 0.04 0.04 0.05 0.06 0.05 0.05 0.06 0.06 0.07 0.08 0.10 0.10 0.11 0.10 0.08 0.09 0.08 0.09 0.11 0.11 0.10 0.10 0.10 0.10 0.10
0.05 0.02 0.04 0.07 0.05 0.06 0.06 0.06 0.05 0.06 0.10 0.16 0.15 0.10 0.05 0.03 0.03 0.03 0.03 0.04 0.04 0.04 0.04 0.04 0.05 0.04 0.04 0.04 0.04 0.06 0.07 0.07 0.08 0.09 0.08 0.06 0.09 0.12 0.11 0.11 0.09 0.10 0.10
0.03 0.02 0.03 0.06 0.06 0.07 0.06 0.06 0.06 0.08 0.07 0.08 0.10 0.07 0.05 0.03 0.04 0.04 0.04 0.04 0.04 0.04 0.04 0.05 0.05 0.04 0.03 0.04 0.04 0.05 0.05 0.08 0.08 0.06 0.05 0.06 0.08 0.13 0.13 0.12 0.09 0.09 0.11
0.01 0.01 0.02 0.03 0.04 0.06 0.06 0.08 0.11 0.15 0.11 0.08 0.07 0.05 0.04 0.03 0.04 0.04 0.04 0.03 0.04 0.05 0.05 0.04 0.04 0.04 0.04 0.04 0.05 0.06 0.04 0.05 0.05 0.02 0.02 0.04 0.06 0.09 0.09 0.10 0.11 0.12 0.10
0.01 0.01 0.02 0.04 0.04 0.04 0.04 0.06 0.10 0.15 0.13 0.11 0.10 0.07 0.05 0.04 0.05 0.06 0.05 0.04 0.04 0.06 0.06 0.04 0.02 0.03 0.04 0.04 0.05 0.07 0.07 0.06 0.03 0.00 0.01 0.02 0.03 0.07 0.07 0.08 0.10 0.13 0.10
0.01 0.01 0.02 0.04 0.03 0.02 0.02 0.04 0.06 0.08 0.09 0.08 0.07 0.07 0.06 0.07 0.06 0.08 0.08 0.06 0.04 0.06 0.05 0.04 0.03 0.02 0.02 0.03 0.04 0.05 0.05 0.04 0.01 0.00 0.01 0.02 0.04 0.06 0.05 0.06 0.06 0.07 0.09
0.01 0.01 0.01 0.03 0.04 0.03 0.02 0.03 0.04 0.05 0.06 0.06 0.06 0.06 0.07 0.08 0.07 0.05 0.05 0.05 0.04 0.06 0.06 0.05 0.05 0.03 0.03 0.02 0.02 0.03 0.03 0.01 0.01 0.01 0.01 0.02 0.04 0.05 0.05 0.04 0.06 0.06 0.06
0.00 0.00 0.00 0.01 0.02 0.03 0.03 0.03 0.04 0.04 0.05 0.04 0.05 0.06 0.07 0.07 0.05 0.04 0.04 0.04 0.03 0.03 0.04 0.03 0.03 0.03 0.02 0.02 0.02 0.02 0.02 0.01 0.01 0.01 0.01 0.01 0.03 0.04 0.04 0.06 0.06 0.06 0.07
0.01 0.01 0.00 0.00 0.00 0.01 0.02 0.03 0.04 0.04 0.04 0.04 0.05 0.05 0.05 0.04 0.04 0.04 0.03 0.04 0.04 0.02 0.01 0.01 0.01 0.02 0.03 0.02 0.02 0.03 0.03 0.02 0.01 0.01 0.01 0.02 0.04 0.05 0.06 0.06 0.05 0.06 0.06
0.02 0.02 0.01 0.00 0.00 0.00 0.01 0.02 0.04 0.04 0.03 0.03 0.03 0.04 0.03 0.02 0.02 0.02 0.02 0.03 0.03 0.03 0.02 0.02 0.01 0.02 0.03 0.02 0.03 0.03 0.03 0.02 0.01 0.01 0.01 0.04 0.06 0.07 0.07 0.05 0.05 0.06 0.06
0.03 0.03 0.02 0.01 0.00 0.00 0.00 0.01 0.01 0.01 0.01 0.01 0.01 0.02 0.02 0.02 0.03 0.02 0.02 0.02 0.01 0.01 0.01 0.01 0.01 0.01 0.01 0.01 0.02 0.02 0.01 0.01 0.01 0.01 0.03 0.07 0.07 0.07 0.07 0.05 0.04 0.04 0.04
0.03 0.03 0.02 0.01 0.01 0.01 0.01 0.01 0.01 0.01 0.01 0.00 0.01 0.01 0.02 0.02 0.02 0.01 0.01 0.01 0.01 0.00 0.01 0.01 0.01 0.01 0.01 0.01 0.02 0.02 0.02 0.03 0.01 0.01 0.04 0.11 0.13 0.10 0.07 0.05 0.05 0.05 0.05
0.04 0.03 0.02 0.02 0.02 0.01 0.01 0.01 0.00 0.00 0.00 0.00 0.01 0.01 0.02 0.02 0.02 0.01 0.02 0.01 0.01 0.01 0.02 0.01 0.01 0.01 0.01 0.01 0.01 0.02 0.02 0.03 0.02 0.01 0.06 0.24 0.24 0.12 0.08 0.05 0.04 0.04 0.05
0.04 0.03 0.03 0.03 0.03 0.02 0.02 0.01 0.01 0.01 0.01 0.01 0.01 0.02 0.03 0.02 0.03 0.02 0.01 0.01 0.01 0.02 0.03 0.02 0.01 0.01 0.01 0.01 0.01 0.01 0.01 0.01 0.01 0.01 0.05 0.18 0.20 0.14 0.11 0.07 0.04 0.03 0.03
0.02 0.03 0.03 0.03 0.04 0.03 0.03 0.01 0.01 0.01 0.01 0.01 0.01 0.01 0.02 0.02 0.03 0.03 0.02 0.01 0.01 0.02 0.02 0.03 0.02 0.01 0.01 0.01 0.00 0.00 0.00 0.00 0.01 0.01 0.03 0.06 0.09 0.10 0.11 0.09 0.06 0.04 0.04
0.02 0.03 0.03 0.03 0.04 0.03 0.03 0.02 0.01 0.02 0.03 0.01 0.00 0.00 0.01 0.01 0.01 0.02 0.03 0.02 0.02 0.02 0.02 0.04 0.03 0.01 0.01 0.01 0.00 0.00 0.01 0.00 0.00 0.01 0.02 0.03 0.05 0.07 0.07 0.08 0.06 0.05 0.04
0.03 0.02 0.02 0.01 0.02 0.03 0.03 0.02 0.02 0.03 0.03 0.02 0.01 0.01 0.01 0.01 0.01 0.01 0.01 0.01 0.02 0.02 0.02 0.04 0.04 0.02 0.01 0.01 0.00 0.00 0.01 0.00 0.00 0.00 0.01 0.03 0.05 0.05 0.05 0.06 0.06 0.04 0.03
0.04 0.03 0.02 0.01 0.01 0.02 0.03 0.02 0.03 0.04 0.04 0.03 0.02 0.02 0.02 0.01 0.01 0.01 0.01 0.01 0.01 0.02 0.02 0.02 0.03 0.02 0.01 0.01 0.01 0.01 0.02 0.01 0.00 0.00 0.01 0.01 0.03 0.06 0.04 0.04 0.03 0.02 0.02
0.05 0.04 0.03 0.02 0.02 0.02 0.02 0.02 0.03 0.03 0.02 0.02 0.02 0.02 0.03 0.03 0.02 0.02 0.02 0.02 0.02 0.02 0.01 0.02 0.02 0.02 0.02 0.02 0.01 0.01 0.02 0.03 0.02 0.01 0.01 0.01 0.02 0.03 0.04 0.03 0.03 0.01 0.01
0.07 0.05 0.04 0.03 0.03 0.03 0.02 0.02 0.03 0.04 0.04 0.03 0.02 0.02 0.03 0.04 0.04 0.03 0.02 0.03 0.02 0.01 0.00 0.00 0.02 0.02 0.02 0.02 0.03 0.02 0.02 0.02 0.03 0.04 0.02 0.02 0.03 0.03 0.05 0.03 0.02 0.01 0.01
0.07 0.05 0.05 0.05 0.05 0.04 0.03 0.02 0.01 0.02 0.04 0.04 0.03 0.02 0.02 0.02 0.03 0.02 0.02 0.01 0.01 0.01 0.00 0.00 0.01 0.01 0.01 0.01 0.02 0.04 0.04 0.03 0.02 0.02 0.02 0.02 0.03 0.03 0.05 0.04 0.02 0.02 0.01
0.04 0.04 0.04 0.04 0.04 0.03 0.03 0.03 0.02 0.01 0.02 0.03 0.03 0.04 0.04 0.03 0.02 0.02 0.02 0.01 0.01 0.01 0.00 0.01 0.01 0.01 0.01 0.01 0.01 0.01 0.02 0.03 0.02 0.01 0.01 0.01 0.02 0.02 0.03 0.04 0.03 0.02 0.02
0.03 0.03 0.04 0.03 0.02 0.03 0.03 0.03 0.02 0.02 0.02 0.02 0.02 0.02 0.03 0.05 0.05 0.03 0.02 0.01 0.01 0.01 0.00 0.00 0.00 0.00 0.01 0.01 0.01 0.01 0.01 0.01 0.01 0.01 0.01 0.01 0.03 0.02 0.02 0.03 0.04 0.04 0.03
0.04 0.03 0.03 0.03 0.02 0.02 0.02 0.02 0.02 0.02 0.02 0.02 0.01 0.02 0.02 0.02 0.04 0.05 0.03 0.01 0.01 0.00 0.00 0.00 0.00 0.00 0.00 0.00 0.01 0.01 0.01 0.01 0.01 0.01 0.00 0.00 0.01 0.02 0.03 0.03 0.03 0.07 0.11
0.07 0.04 0.04 0.02 0.02 0.02 0.02 0.01 0.01 0.01 0.01 0.01 0.01 0.02 0.03 0.03 0.04 0.04 0.03 0.01 0.01 0.01 0.00 0.00 0.00 0.00 0.00 0.01 0.00 0.00 0.01 0.01 0.01 0.01 0.01 0.01 0.01 0.01 0.02 0.02 0.02 0.03 0.13
MSLP
1011.37 1010.84 1010.47 1010.31 1010.33 1010.48 1010.69 1010.88 1010.99 1011.01 1010.93 1010.78 1010.63 1010.51 1010.44 1010.44 1010.48 1010.53 1010.55 1010.54 1010.47 1010.36 1010.25 1010.14 1010.08 1010.07 1010.11 1010.19 1010.27 1010.35 1010.40 1010.41 1010.40 1010.39 1010.39 1010.41 1010.47 1010.57 1010.69 1010.84 1010.99 1011.15 1011.30
1011.19 1010.74 1010.45 1010.34 1010.41 1010.59 1010.81 1011.00 1011.10 1011.10 1011.01 1010.88 1010.75 1010.66 1010.64 1010.68 1010.75 1010.83 1010.88 1010.86 1010.79 1010.66 1010.53 1010.41 1010.33 1010.31 1010.35 1010.44 1010.54 1010.64 1010.73 1010.79 1010.83 1010.86 1010.90 1010.95 1011.02 1011.10 1011.21 1011.33 1011.45 1011.58 1011.72
1010.97 1010.60 1010.39 1010.36 1010.48 1010.70 1010.95 1011.14 1011.24 1011.23 1011.14 1011.01 1010.89 1010.81 1010.81 1010.86 1010.95 1011.03 1011.08 1011.06 1010.98 1010.86 1010.72 1010.61 1010.54 1010.53 1010.58 1010.68 1010.80 1010.93 1011.06 1011.16 1011.26 1011.34 1011.42 1011.50 1011.58 1011.67 1011.76 1011.86 1011.96 1012.07 1012.19
1010.71 1010.43 1010.30 1010.35 1010.54 1010.81 1011.08 1011.28 1011.39 1011.38 1011.29 1011.15 1011.02 1010.95 1010.93 1010.97 1011.05 1011.11 1011.15 1011.13 1011.06 1010.95 1010.84 1010.76 1010.72 1010.74 1010.82 1010.94 1011.10 1011.26 1011.41 1011.56 1011.69 1011.82 1011.94 1012.05 1012.15 1012.25 1012.33 1012.41 1012.49 1012.58 1012.69
1010.45 1010.26 1010.22 1010.34 1010.59 1010.90 1011.20 1011.42 1011.52 1011.52 1011.42 1011.28 1011.14 1011.05 1011.01 1011.03 1011.07 1011.12 1011.13 1011.11 1011.06 1010.99 1010.92 1010.89 1010.91 1010.99 1011.11 1011.27 1011.45 1011.63 1011.81 1011.98 1012.15 1012.30 1012.45 1012.59 1012.70 1012.80 1012.88 1012.95 1013.02 1013.10 1013.20
1010.24 1010.12 1010.15 1010.34 1010.63 1010.97 1011.28 1011.51 1011.62 1011.61 1011.51 1011.37 1011.24 1011.14 1011.08 1011.08 1011.09 1011.11 1011.11 1011.09 1011.06 1011.03 1011.03 1011.07 1011.16 1011.30 1011.47 1011.67 1011.87 1012.07 1012.26 1012.44 1012.61 1012.78 1012.94 1013.08 1013.21 1013.31 1013.39 1013.45 1013.52 1013.60 1013.71
1010.10 1010.04 1010.13 1010.35 1010.67 1011.02 1011.33 1011.55 1011.65 1011.65 1011.56 1011.44 1011.32 1011.23 1011.18 1011.17 1011.17 1011.17 1011.17 1011.15 1011.14 1011.15 1011.20 1011.31 1011.47 1011.67 1011.90 1012.13 1012.35 1012.55 1012.73 1012.90 1013.07 1013.23 1013.38 1013.52 1013.65 1013.75 1013.84 1013.91 1013.98 1014.06 1014.18
1010.07 1010.05 1010.17 1010.41 1010.72 1011.05 1011.34 1011.53 1011.63 1011.62 1011.56 1011.47 1011.40 1011.35 1011.34 1011.35 1011.36 1011.37 1011.36 1011.35 1011.35 1011.39 1011.48 1011.64 1011.85 1012.09 1012.36 1012.61 1012.84 1013.04 1013.21 1013.35 1013.49 1013.63 1013.77 1013.91 1014.04 1014.14 1014.23 1014.31 1014.40 1014.50 1014.63
1010.17 1010.17 1010.29 1010.52 1010.81 1011.09 1011.33 1011.49 1011.56 1011.56 1011.52 1011.49 1011.48 1011.51 1011.57 1011.63 1011.68 1011.70 1011.70 1011.69 1011.70 1011.74 1011.85 1012.02 1012.26 1012.53 1012.81 1013.08 1013.31 1013.49 1013.64 1013.77 1013.88 1014.00 1014.12 1014.25 1014.37 1014.49 1014.59 1014.69 1014.79 1014.91 1015.06
1010.42 1010.42 1010.53 1010.73 1010.96 1011.18 1011.35 1011.44 1011.48 1011.47 1011.47 1011.50 1011.57 1011.69 1011.84 1011.98 1012.08 1012.14 1012.16 1012.14 1012.14 1012.17 1012.27 1012.43 1012.67 1012.94 1013.23 1013.49 1013.72 1013.89 1014.03 1014.13 1014.23 1014.33 1014.44 1014.56 1014.69 1014.82 1014.94 1015.06 1015.18 1015.33 1015.49
1010.82 1010.81 1010.90 1011.05 1011.21 1011.34 1011.42 1011.44 1011.42 1011.40 1011.41 1011.49 1011.64 1011.86 1012.10 1012.33 1012.50 1012.61 1012.64 1012.63 1012.61 1012.62 1012.68 1012.83 1013.04 1013.30 1013.58 1013.83 1014.06 1014.23 1014.36 1014.46 1014.55 1014.64 1014.75 1014.87 1015.01 1015.15 1015.30 1015.44 1015.60 1015.76 1015.95
1011.38 1011.36 1011.41 1011.50 1011.58 1011.62 1011.59 1011.52 1011.42 1011.35 1011.36 1011.46 1011.67 1011.96 1012.29 1012.60 1012.85 1013.01 1013.07 1013.07 1013.04 1013.03 1013.07 1013.18 1013.37 1013.61 1013.87 1014.13 1014.35 1014.53 1014.66 1014.77 1014.86 1014.96 1015.07 1015.20 1015.35 1015.51 1015.68 1015.85 1016.03 1016.22 1016.43
1012.08 1012.05 1012.07 1012.10 1012.10 1012.03 1011.89 1011.70 1011.51 1011.36 1011.32 1011.42 1011.64 1011.97 1012.36 1012.73 1013.04 1013.26 1013.37 1013.40 1013.38 1013.37 1013.40 1013.49 1013.66 1013.88 1014.14 1014.40 1014.63 1014.83 1014.98 1015.10 1015.21 1015.32 1015.44 1015.58 1015.74 1015.91 1016.10 1016.29 1016.49 1016.71 1016.93
1012.90 1012.86 1012.85 1012.83 1012.74 1012.57 1012.32 1012.01 1011.70 1011.46 1011.33 1011.37 1011.56 1011.88 1012.28 1012.69 1013.06 1013.33 1013.50 1013.59 1013.61 1013.63 1013.68 1013.78 1013.95 1014.18 1014.44 1014.71 1014.95 1015.17 1015.34 1015.49 1015.61 1015.73 1015.86 1016.00 1016.16 1016.34 1016.53 1016.74 1016.96 1017.19 1017.42
1013.79 1013.74 1013.70 1013.63 1013.48 1013.22 1012.87 1012.45 1012.02 1011.65 1011.41 1011.34 1011.45 1011.71 1012.08 1012.50 1012.89 1013.22 1013.47 1013.63 1013.73 1013.82 1013.93 1014.07 1014.27 1014.52 1014.80 1015.08 1015.35 1015.58 1015.78 1015.94 1016.08 1016.21 1016.34 1016.47 1016.63 1016.79 1016.98 1017.18 1017.41 1017.64 1017.89
1014.68 1014.62 1014.56 1014.46 1014.26 1013.94 1013.51 1012.99 1012.45 1011.96 1011.59 1011.38 1011.37 1011.52 1011.82 1012.19 1012.59 1012.96 1013.29 1013.55 1013.76 1013.96 1014.16 1014.38 1014.64 1014.93 1015.24 1015.54 1015.82 1016.08 1016.29 1016.46 1016.61 1016.74 1016.86 1016.98 1017.11 1017.26 1017.42 1017.60 1017.81 1018.05 1018.30
1015.49 1015.42 1015.35 1015.22 1015.00 1014.65 1014.18 1013.61 1012.99 1012.39 1011.89 1011.53 1011.36 1011.38 1011.55 1011.85 1012.22 1012.62 1013.01 1013.38 1013.72 1014.04 1014.36 1014.68 1015.02 1015.36 1015.71 1016.04 1016.34 1016.61 1016.83 1017.02 1017.17 1017.30 1017.41 1017.51 1017.61 1017.72 1017.85 1018.00 1018.19 1018.40 1018.65
1016.16 1016.07 1015.98 1015.85 1015.64 1015.31 1014.84 1014.26 1013.60 1012.93 1012.32 1011.82 1011.48 1011.33 1011.36 1011.55 1011.85 1012.24 1012.68 1013.13 1013.59 1014.04 1014.48 1014.92 1015.34 1015.75 1016.14 1016.50 1016.82 1017.11 1017.35 1017.55 1017.71 1017.84 1017.95 1018.03 1018.11 1018.18 1018.27 1018.38 1018.53 1018.72 1018.94
1016.63 1016.51 1016.41 1016.30 1016.12 1015.84 1015.43 1014.89 1014.25 1013.56 1012.86 1012.24 1011.75 1011.42 1011.28 1011.32 1011.52 1011.86 1012.30 1012.81 1013.36 1013.92 1014.47 1015.01 1015.52 1015.99 1016.43 1016.83 1017.18 1017.49 1017.75 1017.98 1018.17 1018.32 1018.43 1018.52 1018.58 1018.63 1018.68 1018.75 1018.86 1019.01 1019.21
1016.88 1016.73 1016.62 1016.54 1016.42 1016.23 1015.91 1015.47 1014.89 1014.22 1013.49 1012.78 1012.15 1011.65 1011.33 1011.19 1011.25 1011.49 1011.89 1012.40 1012.99 1013.62 1014.25 1014.88 1015.46 1016.00 1016.49 1016.93 1017.32 1017.67 1017.98 1018.25 1018.48 1018.68 1018.82 1018.93 1019.00 1019.04 1019.08 1019.12 1019.19 1019.30 1019.46
1016.93 1016.74 1016.64 1016.58 1016.54 1016.45 1016.26 1015.94 1015.47 1014.86 1014.15 1013.39 1012.64 1011.99 1011.47 1011.15 1011.03 1011.13 1011.43 1011.89 1012.46 1013.12 1013.80 1014.48 1015.12 1015.72 1016.26 1016.75 1017.19 1017.59 1017.96 1018.30 1018.61 1018.86 1019.08 1019.23 1019.34 1019.40 1019.44 1019.47 1019.52 1019.60 1019.73
1016.83 1016.61 1016.50 1016.48 1016.50 1016.52 1016.47 1016.29 1015.95 1015.44 1014.77 1013.99 1013.16 1012.37 1011.68 1011.16 1010.85 1010.77 1010.93 1011.28 1011.80 1012.42 1013.11 1013.82 1014.50 1015.15 1015.74 1016.29 1016.79 1017.26 1017.70 1018.12 1018.51 1018.86 1019.15 1019.39 1019.56 1019.67 1019.74 1019.79 1019.84 1019.91 1020.01
1016.67 1016.42 1016.29 1016.29 1016.37 1016.47 1016.54 1016.50 1016.29 1015.89 1015.29 1014.52 1013.65 1012.76 1011.92 1011.22 1010.71 1010.43 1010.42 1010.63 1011.04 1011.60 1012.25 1012.95 1013.66 1014.34 1014.98 1015.59 1016.15 1016.70 1017.22 1017.72 1018.20 1018.64 1019.03 1019.36 1019.61 1019.81 1019.94 1020.03 1020.10 1020.18 1020.27
1016.51 1016.23 1016.08 1016.07 1016.18 1016.34 1016.49 1016.55 1016.46 1016.16 1015.64 1014.91 1014.03 1013.08 1012.13 1011.28 1010.59 1010.14 1009.93 1009.99 1010.26 1010.73 1011.32 1011.99 1012.70 1013.41 1014.09 1014.75 1015.38 1015.99 1016.58 1017.15 1017.71 1018.23 1018.71 1019.13 1019.48 1019.76 1019.98 1020.14 1020.27 1020.38 1020.49
1016.41 1016.11 1015.93 1015.89 1015.98 1016.15 1016.33 1016.45 1016.44 1016.23 1015.79 1015.12 1014.27 1013.30 1012.29 1011.33 1010.51 1009.90 1009.53 1009.43 1009.57 1009.92 1010.44 1011.07 1011.76 1012.48 1013.20 1013.90 1014.57 1015.23 1015.87 1016.49 1017.10 1017.68 1018.23 1018.73 1019.17 1019.54 1019.85 1020.11 1020.31 1020.48 1020.62
1016.40 1016.07 1015.84 1015.75 1015.78 1015.91 1016.07 1016.21 1016.23 1016.08 1015.71 1015.12 1014.33 1013.38 1012.37 1011.37 1010.46 1009.74 1009.24 1009.00 1009.01 1009.25 1009.69 1010.27 1010.94 1011.67 1012.40 1013.13 1013.83 1014.51 1015.17 1015.81 1016.44 1017.04 1017.63 1018.18 1018.69 1019.15 1019.56 1019.91 1020.21 1020.46 1020.67
Thickness
5766 5770 5772 5774 5774 5775 5775 5776 5777 5778 5778 5779 5778 5777 5777 5777 5776 5776 5776 5776 5776 5776 5776 5776 5776 5776 5775 5775 5774 5774 5774 5773 5773 5772 5772 5772 5772 5771 5771 5770 5769 5769 5768
5768 5769 5771 5772 5773 5773 5774 5774 5774 5775 5776 5776 5775 5774 5774 5774 5774 5774 5773 5773 5773 5773 5773 5773 5774 5773 5773 5772 5772 5772 5771 5771 5770 5770 5769 5769 5769 5769 5768 5768 5767 5766 5766
5767 5768 5769 5770 5770 5771 5772 5772 5772 5772 5773 5772 5772 5771 5771 5771 5771 5771 5771 5771 5770 5770 5770 5770 5770 5770 5770 5769 5769 5769 5769 5768 5767 5767 5767 5766 5766 5766 5766 5765 5764 5764 5763
5767 5766 5767 5767 5768 5769 5769 5769 5770 5770 5769 5769 5768 5768 5768 5768 5768 5768 5767 5767 5767 5767 5767 5767 5766 5766 5766 5766 5765 5765 5765 5765 5764 5764 5763 5763 5763 5763 5763 5762 5762 5761 5760
5764 5764 5764 5765 5765 5766 5766 5766 5766 5766 5766 5765 5765 5764 5764 5764 5764 5764 5764 5764 5764 5763 5763 5763 5763 5763 5762 5762 5762 5761 5761 5761 5760 5760 5760 5760 5760 5760 5759 5759 5759 5758 5757
5762 5762 5762 5762 5762 5762 5763 5763 5763 5763 5762 5762 5761 5761 5760 5760 5760 5760 5760 5760 5760 5760 5760 5760 5760 5759 5759 5758 5758 5758 5757 5756 5756 5756 5756 5756 5756 5756 5756 5755 5755 5755 5754
5759 5759 5759 5759 5759 5759 5759 5759 5759 5759 5759 5758 5757 5757 5756 5756 5756 5756 5756 5756 5756 5756 5756 5756 5756 5755 5755 5754 5754 5753 5753 5752 5752 5752 5752 5753 5753 5753 5752 5752 5752 5751 5751
5757 5756 5756 5756 5756 5756 5756 5756 5756 5755 5755 5754 5753 5753 5753 5752 5752 5752 5752 5752 5752 5752 5752 5752 5752 5751 5751 5750 5750 5749 5748 5748 5748 5748 5748 5749 5749 5749 5749 5748 5748 5748 5748
5754 5753 5752 5753 5753 5752 5752 5752 5752 5751 5750 5750 5749 5749 5748 5748 5748 5748 5748 5748 5748 5748 5748 5748 5748 5748 5747 5746 5746 5744 5744 5743 5743 5744 5744 5745 5745 5745 5744 5744 5744 5744 5743
5750 5750 5749 5749 5749 5748 5748 5748 5747 5747 5746 5746 5745 5744 5744 5743 5743 5743 5743 5744 5744 5744 5744 5744 5744 5744 5743 5742 5741 5740 5739 5739 5739 5739 5740 5741 5741 5741 5741 5740 5740 5740 5739
5745 5745 5745 5745 5745 5745 5744 5744 5743 5743 5742 5741 5741 5740 5740 5739 5739 5739 5739 5740 5740 5740 5740 5740 5740 5739 5738 5737 5737 5736 5735 5735 5735 5735 5736 5737 5738 5737 5737 5736 5735 5735 5735
5739 5741 5742 5742 5741 5741 5741 5740 5739 5738 5738 5737 5736 5736 5735 5734 5734 5735 5735 5735 5735 5736 5736 5736 5735 5734 5734 5733 5732 5731 5731 5731 5731 5731 5732 5733 5733 5733 5732 5732 5731 5731 5731
5739 5739 5739 5739 5739 5738 5737 5736 5736 5735 5734 5733 5733 5732 5731 5730 5730 5730 5730 5731 5731 5731 5731 5731 5730 5730 5729 5728 5727 5727 5726 5726 5726 5727 5727 5728 5728 5728 5727 5727 5726 5726 5726
5737 5737 5737 5737 5736 5735 5735 5734 5733 5731 5731 5730 5729 5729 5728 5727 5726 5726 5726 5726 5726 5726 5726 5726 5725 5724 5724 5723 5722 5722 5721 5721 5721 5722 5722 5722 5722 5722 5722 5721 5721 5721 5721
5734 5735 5735 5735 5733 5732 5731 5730 5730 5728 5728 5728 5727 5726 5726 5724 5723 5722 5722 5722 5722 5722 5722 5721 5720 5719 5718 5718 5717 5716 5716 5716 5716 5716 5716 5716 5716 5716 5716 5716 5716 5716 5716
5732 5732 5733 5732 5730 5729 5728 5727 5726 5726 5725 5725 5724 5723 5723 5722 5721 5720 5719 5718 5718 5718 5717 5716 5715 5715 5714 5713 5711 5711 5711 5710 5710 5710 5710 5710 5710 5710 5711 5710 5710 5710 5710
5731 5731 5730 5730 5728 5727 5725 5724 5724 5723 5722 5721 5721 5720 5720 5720 5719 5717 5716 5715 5714 5714 5714 5713 5711 5710 5709 5707 5706 5706 5705 5704 5704 5704 5704 5704 5704 5704 5704 5704 5704 5704 5704
5730 5729 5728 5728 5725 5723 5722 5722 5721 5719 5718 5718 5717 5717 5717 5716 5715 5714 5713 5711 5711 5711 5710 5708 5706 5704 5702 5701 5700 5699 5699 5699 5698 5698 5698 5698 5697 5697 5697 5697 5697 5698 5698
5728 5726 5725 5724 5722 5720 5719 5718 5717 5716 5715 5714 5714 5713 5713 5712 5712 5711 5709 5708 5708 5707 5705 5704 5701 5699 5697 5695 5695 5694 5693 5693 5692 5692 5692 5691 5691 5691 5691 5691 5691 5691 5692
5725 5723 5721 5720 5718 5716 5714 5713 5711 5711 5710 5710 5710 5710 5709 5709 5708 5707 5705 5705 5704 5702 5700 5699 5697 5695 5693 5692 5691 5688 5687 5687 5687 5686 5686 5685 5685 5685 5684 5684 5684 5685 5685
5720 5718 5716 5714 5713 5712 5709 5706 5704 5704 5705 5705 5706 5706 5706 5705 5704 5703 5701 5700 5699 5697 5696 5695 5693 5690 5687 5687 5684 5680 5680 5681 5680 5680 5680 5680 5679 5678 5678 5679 5679 5679 5679
5715 5714 5712 5710 5709 5708 5706 5704 5703 5701 5701 5702 5702 5702 5702 5701 5700 5699 5698 5696 5695 5693 5691 5690 5689 5685 5683 5682 5679 5673 5669 5670 5673 5675 5674 5674 5673 5673 5673 5673 5674 5674 5674
5711 5710 5710 5707 5706 5704 5703 5701 5699 5697 5696 5695 5695 5696 5697 5697 5697 5696 5694 5693 5691 5690 5687 5686 5685 5683 5678 5677 5677 5673 5665 5661 5662 5665 5667 5668 5667 5667 5667 5668 5668 5668 5669
5708 5707 5706 5704 5702 5701 5699 5697 5694 5691 5688 5689 5690 5691 5692 5693 5692 5691 5690 5689 5688 5686 5684 5683 5682 5680 5677 5673 5673 5671 5669 5665 5660 5657 5658 5660 5662 5662 5662 5663 5663 5664 5664
5706 5704 5702 5700 5698 5696 5695 5693 5690 5688 5687 5686 5686 5686 5686 5687 5687 5687 5686 5685 5684 5682 5681 5679 5678 5676 5674 5672 5669 5667 5664 5661 5659 5654 5650 5651 5654 5656 5657 5658 5658 5659 5659
5702 5700 5699 5696 5694 5692 5691 5689 5687 5685 5683 5682 5681 5680 5680 5680 5681 5681 5681 5681 5680 5679 5677 5676 5674 5673 5671 5669 5667 5664 5662 5659 5655 5651 5647 5645 5645 5649 5652 5653 5653 5654 5654